Content
SEND FEEDBACK

Daily
Averages
Monthly
Summary
United States of America

SANDUSKY, MICHIGAN


Home > North America > United States > Michigan
Elevation: 770 feet     Latitude: 43 25N     Longitude: 082 50W

WEATHER
 
SELECT A DAY
Number of Records: 430,855;   Date Range: 3/27/97 - 7/27/14
 
SHARE

PRINT THIS DATA

[ ← Previous Day ]
WEATHER ALMANAC - FEBRUARY 13, 2013
[ Next Day → ]
[ °C ]   °F
Weather ElementAverageHighLow
Temperature28.6 °F32 °F (3:14 pm)25.2 °F (1:34 am)
Dewpoint22.8 °F26.2 °F (8:15 pm)18.3 °F (1:14 am)
Humidity79.1 %85 % (8:54 pm)74 % (3:14 pm)
Barometer29.78 in29.89 in (12:54 am)29.71 in (4:14 pm)
Wind Speed7.5 mph13.8 mph (12:54 pm)
Wind Gust18.4 mph (12:54 pm)
Weather ElementAverage
Visibility10 mi
Wind DirectionSSW (218.3 °)

Weather ElementTotal
Precipitation---
Heating Degree Days36.4 (Base 65)
Averaged from 71 records on February 13, 2013
WEATHER CONDITIONS BREAKOUT
WIND DIRECTION BREAKOUT
WEATHER BY HOUR - FEBRUARY 13, 2013
[ °C ]   °F
Local TimeTemperatureDewpointHumidityBarometerVisibilityWind DirectionWind SpeedGust SpeedPrecipitationEventsConditions
12:34 AM25.5 °F18.7 °F75 %29.88 in10.0 miWest (270°)6.9 mphOvercast
12:54 AM25.3 °F18.5 °F75 %29.89 in10.0 miWest (260°)10.4 mph16.1 mphOvercast
1:14 AM25.3 °F18.3 °F75 %29.89 in10.0 miWest (280°)11.5 mph16.1 mphOvercast
1:34 AM25.2 °F18.3 °F75 %29.88 in10.0 miWest (260°)9.2 mphOvercast
1:54 AM25.2 °F18.5 °F76 %29.88 in10.0 miWest (270°)10.4 mphOvercast
2:14 AM25.2 °F18.9 °F77 %29.87 in10.0 miWest (260°)10.4 mph16.1 mphOvercast
2:34 AM25.2 °F18.9 °F77 %29.87 in10.0 miWest (260°)8.1 mphOvercast
2:54 AM25.2 °F19.0 °F78 %29.87 in10.0 miWest (270°)4.6 mphOvercast
3:13 AM25.3 °F19.2 °F78 %29.87 in10.0 miWest (260°)6.9 mphOvercast
3:34 AM25.3 °F19.4 °F78 %29.87 in10.0 miWSW (250°)6.9 mphOvercast
3:54 AM25.5 °F19.4 °F78 %29.86 in10.0 miWest (260°)6.9 mphOvercast
4:13 AM25.5 °F19.8 °F79 %29.86 in10.0 miWest (260°)5.8 mphOvercast
4:34 AM25.7 °F19.9 °F79 %29.85 in10.0 miWest (260°)6.9 mphOvercast
4:54 AM25.7 °F20.3 °F80 %29.85 in10.0 miSW (230°)6.9 mphOvercast
5:13 AM26.1 °F20.3 °F79 %29.84 in10.0 miWSW (240°)5.8 mphOvercast
5:34 AM26.2 °F20.8 °F80 %29.84 in10.0 miWSW (250°)6.9 mphOvercast
5:54 AM26.4 °F20.8 °F79 %29.84 in10.0 miWSW (240°)4.6 mphOvercast
6:13 AM26.6 °F21.0 °F79 %29.83 in10.0 miWSW (250°)5.8 mphOvercast
6:34 AM26.6 °F21.2 °F80 %29.82 in10.0 miWest (260°)6.9 mphOvercast
6:54 AM26.6 °F21.2 °F80 %29.82 in10.0 miWSW (250°)5.8 mphOvercast
7:14 AM26.6 °F21.2 °F80 %29.82 in10.0 miWSW (250°)8.1 mphOvercast
7:34 AM27.0 °F21.2 °F79 %29.81 in10.0 miWSW (240°)5.8 mphOvercast
7:54 AM26.6 °F21.2 °F80 %29.81 in10.0 miSW (220°)6.9 mphOvercast
8:14 AM26.6 °F21.6 °F81 %29.81 in10.0 miWSW (250°)8.1 mphOvercast
8:34 AM26.6 °F21.6 °F81 %29.80 in10.0 miSW (230°)8.1 mphOvercast
8:54 AM26.8 °F21.4 °F80 %29.79 in10.0 miSW (230°)5.8 mphOvercast
9:14 AM27.0 °F21.6 °F80 %29.80 in10.0 miSW (220°)6.9 mphOvercast
9:34 AM27.1 °F21.7 °F80 %29.79 in10.0 miSSW (210°)6.9 mphOvercast
9:54 AM27.3 °F21.7 °F80 %29.79 in10.0 miSSW (200°)9.2 mphOvercast
10:14 AM27.5 °F21.7 °F79 %29.78 in10.0 miSSW (200°)10.4 mphOvercast
10:34 AM27.7 °F22.1 °F80 %29.78 in10.0 miSSW (210°)8.1 mphOvercast
10:54 AM28.0 °F22.3 °F79 %29.78 in10.0 miSSW (210°)8.1 mphOvercast
11:14 AM28.4 °F22.6 °F79 %29.77 in10.0 miSSW (200°)9.2 mphOvercast
11:34 AM28.6 °F22.3 °F77 %29.78 in10.0 miSSW (200°)9.2 mphOvercast
11:55 AM29.1 °F23.0 °F78 %29.78 in10.0 miSouth (190°)9.2 mphOvercast
12:14 PM29.3 °F23.0 °F77 %29.78 in10.0 miSW (220°)11.5 mphOvercast
12:34 PM29.8 °F23.5 °F77 %29.76 in10.0 miSSW (210°)12.7 mphOvercast
12:54 PM30.0 °F23.7 °F77 %29.76 in10.0 miSSW (210°)13.8 mph18.4 mphOvercast
1:14 PM30.2 °F23.7 °F77 %29.75 in10.0 miSSW (210°)12.7 mph18.4 mphOvercast
1:34 PM30.7 °F23.9 °F76 %29.74 in10.0 miSSW (210°)12.7 mphOvercast
1:55 PM31.1 °F23.9 °F75 %29.73 in10.0 miSW (220°)11.5 mphOvercast
2:14 PM31.5 °F24.4 °F75 %29.73 in10.0 miSSW (210°)11.5 mphOvercast
2:34 PM31.5 °F24.3 °F75 %29.72 in10.0 miSSW (210°)10.4 mphOvercast
2:54 PM31.5 °F24.3 °F75 %29.72 in10.0 miSW (220°)8.1 mphOvercast
3:14 PM32.0 °F24.4 °F74 %29.72 in10.0 miWSW (240°)8.1 mphOvercast
3:34 PM31.8 °F24.4 °F74 %29.72 in10.0 miSW (220°)9.2 mphOvercast
3:54 PM32.0 °F24.6 °F74 %29.72 in10.0 miSW (230°)8.1 mphOvercast
4:14 PM32.0 °F24.6 °F74 %29.71 in10.0 miWSW (240°)10.4 mphOvercast
4:34 PM31.6 °F24.3 °F74 %29.72 in10.0 miWSW (240°)9.2 mphOvercast
4:54 PM31.1 °F24.3 °F76 %29.72 in10.0 miWSW (240°)8.1 mphOvercast
5:14 PM30.9 °F24.4 °F77 %29.72 in10.0 miSW (230°)9.2 mphOvercast
5:35 PM30.7 °F24.8 °F79 %29.72 in10.0 miSW (230°)6.9 mphOvercast
5:54 PM30.7 °F25.3 °F80 %29.73 in10.0 miSW (230°)8.1 mphOvercast
6:14 PM30.7 °F25.5 °F81 %29.73 in10.0 miSW (220°)9.2 mphOvercast
6:35 PM31.1 °F25.7 °F80 %29.73 in10.0 miSW (220°)8.1 mphOvercast
6:54 PM30.9 °F25.7 °F81 %29.73 in10.0 miSW (220°)5.8 mphOvercast
7:14 PM30.9 °F25.7 °F81 %29.73 in10.0 miSSW (210°)5.8 mphOvercast
7:35 PM30.6 °F26.1 °F83 %29.73 in10.0 miSSW (210°)4.6 mphOvercast
7:54 PM30.6 °F26.1 °F83 %29.74 in10.0 miSSW (210°)4.6 mphOvercast
8:15 PM30.6 °F26.2 °F84 %29.74 in10.0 miSSW (200°)4.6 mphOvercast
8:34 PM30.6 °F26.2 °F84 %29.74 in10.0 miSSW (200°)3.5 mphOvercast
8:54 PM30.2 °F26.1 °F85 %29.74 in10.0 miSSW (200°)4.6 mphOvercast
9:15 PM30.2 °F25.7 °F83 %29.74 in10.0 miSouth (190°)4.6 mphOvercast
9:34 PM30.0 °F26.1 °F85 %29.74 in10.0 miCalmOvercast
9:54 PM30.0 °F26.1 °F85 %29.74 in10.0 miSouth (170°)3.5 mphOvercast
10:14 PM30.2 °F25.7 °F83 %29.74 in10.0 miSSE (150°)3.5 mphOvercast
10:34 PM30.2 °F25.7 °F83 %29.74 in10.0 miCalmOvercast
10:54 PM30.0 °F25.7 °F84 %29.74 in10.0 miSouth (170°)4.6 mphOvercast
11:13 PM30.2 °F25.9 °F84 %29.73 in10.0 miSouth (170°)5.8 mphOvercast
11:34 PM30.2 °F26.1 °F85 %29.73 in10.0 miSouth (170°)4.6 mphOvercast
11:54 PM30.2 °F26.2 °F85 %29.73 in10.0 miSouth (170°)4.6 mphOvercast
Hourly data recorded from KBAX, located miles away from Sandusky, Michigan







STORIES FROM OUR PARTNERS